Location: Sternwarte ZA, Rosenfeld-Brittheim
(48.2889°N, 8.6789°E)
Time: 06:32:53
(UTC+01:00)

ISS - Pass Details

Date: 05 December 2019
Orbit: 411 x 421 km, 51.6° (Epoch: 15 December)

Event Time Altitude Azimuth Distance (km) Brightness Sun altitude
Rises 17:35:21 0° 286° (WNW) 2,358 0.9 -10.1°
Reaches altitude 10° 17:37:29 10° 292° (WNW) 1,496 -0.3 -10.5°
Maximum altitude 17:40:46 51° 10° (N) 535 -3.5 -11.0°
Enters shadow 17:43:04 18° 82° (E) 1,118 -2.2 -11.3°
